Regional Weather Roundup
Issued by NWS State College, PA

Home | Current Version | Previous Version | Graphics & Text | Print | Product List | Glossary Off
Versions: 1 2 3 4 5 6 7 8 9 10 11 12 13 14 15 16 17 18 19 20 21 22 23 24 25 26 27 28 29 30 31 32 33 34 35 36 37 38 39 40 41 42 43 44 45 46 47 48 49 50

000
ASUS41 KCTP 262003
RWRCTP

REGIONAL WEATHER ROUNDUP
NATIONAL WEATHER SERVICE STATE COLLEGE PA
400 PM EDT FRI AUG 26 2016

Note: "fair" indicates few or no clouds below 12,000 feet with no
significant weather and/or obstructions to visibility.

* = STATION THAT DOES NOT REPORT PRECIPITATION /E.G. RAIN...SNOW...ETC/
    THUNDER OR FOG.

PAZ002>004-007>009-013>016-020>023-029>032-262100-
WESTERN PENNSYLVANIA

CITY           SKY/WX    TMP DP  RH WIND       PRES   REMARKS
ERIE           SUNNY     79  65  62 W10       30.13F
MEADVILLE      SUNNY     80  60  50 VRB7      30.16S
FRANKLIN*        N/A     81  61  50 W3        30.16S
NEW CASTLE     FAIR      85  63  47 NW5       30.15S
BEAVER COUNTY  SUNNY     86  59  39 NW6       30.15S
BUTLER*        NOT AVBL
PITTSBURGH INT MOSUNNY   87  65  47 N9        30.13S
PITTSBURGH     MOSUNNY   85  65  51 VRB3      30.12F
INDIANA*       SUNNY     84  64  51 NW7       30.17S
LATROBE        PTSUNNY   84  68  58 NW7       30.13F
WASHINGTON CO* MOSUNNY   84  70  61 NW6       30.14F
$$

PAZ004>006-010>012-017>019-024>028-033>037-041-042-045-046-049>053-262100-
CENTRAL PENNSYLVANIA

CITY           SKY/WX    TMP DP  RH WIND       PRES   REMARKS
BRADFORD       SUNNY     81  61  50 W7        30.16F
DUBOIS         SUNNY     82  60  47 W8        30.15F
CLEARFIELD     SUNNY     86  62  44 NW8       30.14S
JOHNSTOWN      SUNNY     82  64  54 NW10      30.18F
ALTOONA        SUNNY     86  62  44 NW10      30.13F
STATE COLLEGE  SUNNY     86  63  45 NW12      30.10F
WILLIAMSPORT   SUNNY     90  61  37 VRB6      30.04F
SELINSGROVE    SUNNY     89  68  49 N7        30.05F
FT INDIANTOWN  SUNNY     88  65  46 NW7       30.05S
CAPITAL CITY   SUNNY     93  61  34 N8        30.04F
HARRISBURG     PTSUNNY   91  68  46 NW7       30.03F HX  95
YORK           MOSUNNY   92  67  43 N7        30.05F HX  95
$$

PAZ038>040-043-044-047-048-054-055-060>062-067>071-262100-
EASTERN PENNSYLVANIA

CITY           SKY/WX    TMP DP  RH WIND       PRES   REMARKS
SCRANTON       MOSUNNY   85  64  49 VRB5      30.07F
MOUNT POCONO   SUNNY     81  60  48 NW13      30.11F
ALLENTOWN      MOSUNNY   91  65  41 NW8       30.02F
QUAKERTOWN*    PTCLDY    91  64  40 N7        30.04S
READING        SUNNY     89  63  41 NW9       30.02F
LANCASTER      MOSUNNY   90  70  51 NW9       30.04F HX  95
COATESVILLE    CLEAR     86  68  54 NW10      30.06F
POTTSTOWN      SUNNY     89  65  44 VRB5      30.03F
BLUE BELL      CLOUDY    88  68  51 W3        30.01S
DOYLESTOWN     MOSUNNY   93  65  39 NW7G17    30.01F HX  95
WILLOW GROVE   NOT AVBL
NORTH PHILA    PTSUNNY   91  68  46 N9        30.01F HX  95
PHILADELPHIA   MOSUNNY   92  64  39 NW15      30.00F
$$




USA.gov is the U.S. government's official web portal to all federal, state and local government web resources and services.